When you browse on this site, cookies collect data to enhance your experience and personalize the content and advertising you see.
Visit our Privacy Policy to learn more. By continuing to use the site, you agree to this use of cookies and data.
  • In Czech Republic
  • List of Countries
  • For 7 days
  • Water Temperature
  • Satellite Maps
  • Weather Map
  • Weather Widgets
  • user-avatar
    Login

    Hourly Weather Camopi

    Today, 21 July, Sunday

    Time Temperature Precipitation Wind Pressure Humidity
    00:00 +23°C° 0 mm 1 mps 750 mmHg 97%
    01:00 +21°C° 0.1 mm 0 mps 750 mmHg 98%
    02:00 +21°C° 0.1 mm 0 mps 750 mmHg 98%
    03:00 +21°C° 0.1 mm 0 mps 749 mmHg 99%
    04:00 +21°C° 0.1 mm 0 mps 749 mmHg 99%
    05:00 +21°C° 0.1 mm 0 mps 749 mmHg 99%
    06:00 +21°C° 0.1 mm 0 mps 749 mmHg 99%
    07:00 +24°C° 0.2 mm 1 mps 749 mmHg 96%
    08:00 +25°C° 0.2 mm 1 mps 750 mmHg 93%
    09:00 +27°C° 0.2 mm 1 mps 751 mmHg 89%
    10:00 +28°C° 0.1 mm 2 mps 750 mmHg 79%
    11:00 +30°C° 0.1 mm 2 mps 750 mmHg 69%
    12:00 +32°C° 0.1 mm 2 mps 750 mmHg 59%
    13:00 +32°C° 0.4 mm 2 mps 750 mmHg 62%
    14:00 +31°C° 0.4 mm 2 mps 749 mmHg 64%
    15:00 +31°C° 0.4 mm 2 mps 748 mmHg 67%
    16:00 +30°C° 0.3 mm 2 mps 748 mmHg 75%
    17:00 +28°C° 0.3 mm 2 mps 748 mmHg 84%
    18:00 +27°C° 0.3 mm 1 mps 748 mmHg 92%
    19:00 +26°C° 0.2 mm 1 mps 749 mmHg 94%
    20:00 +25°C° 0.2 mm 1 mps 749 mmHg 96%
    21:00 +24°C° 0.2 mm 1 mps 750 mmHg 98%
    22:00 +24°C° 0 mm 1 mps 750 mmHg 99%
    23:00 +24°C° 0 mm 1 mps 750 mmHg 99%

    Tomorrow, 22 July, Monday

    Time Temperature Precipitation Wind Pressure Humidity
    00:00 +21°C° 0 mm 0 mps 750 mmHg 99%
    01:00 +21°C° 0 mm 0 mps 750 mmHg 99%
    02:00 +21°C° 0 mm 0 mps 750 mmHg 99%
    03:00 +21°C° 0 mm 0 mps 749 mmHg 99%
    04:00 +21°C° 0 mm 0 mps 749 mmHg 99%
    05:00 +21°C° 0 mm 0 mps 749 mmHg 99%
    06:00 +20°C° 0 mm 0 mps 749 mmHg 99%
    07:00 +22°C° 0 mm 0 mps 750 mmHg 95%
    08:00 +23°C° 0 mm 0 mps 750 mmHg 92%
    09:00 +25°C° 0 mm 0 mps 750 mmHg 89%
    10:00 +27°C° 0.6 mm 1 mps 750 mmHg 88%
    11:00 +28°C° 0.6 mm 1 mps 750 mmHg 87%
    12:00 +29°C° 0.6 mm 1 mps 750 mmHg 86%
    13:00 +29°C° 1.2 mm 1 mps 750 mmHg 85%
    14:00 +29°C° 1.2 mm 1 mps 749 mmHg 83%
    15:00 +29°C° 1.2 mm 1 mps 748 mmHg 82%
    16:00 +28°C° 0.8 mm 1 mps 748 mmHg 87%
    17:00 +27°C° 0.8 mm 1 mps 748 mmHg 91%
    18:00 +26°C° 0.8 mm 1 mps 748 mmHg 96%
    19:00 +25°C° 0 mm 1 mps 749 mmHg 96%
    20:00 +24°C° 0 mm 1 mps 749 mmHg 97%
    21:00 +24°C° 0 mm 1 mps 750 mmHg 98%
    22:00 +21°C° 0 mm 0 mps 750 mmHg 98%
    23:00 +21°C° 0 mm 0 mps 750 mmHg 98%

    Day after tomorrow, 23 July, Tuesday

    Time Temperature Precipitation Wind Pressure Humidity
    00:00 +21°C° 0 mm 0 mps 750 mmHg 98%
    01:00 +21°C° 0 mm 0 mps 750 mmHg 99%
    02:00 +21°C° 0 mm 0 mps 749 mmHg 99%
    03:00 +21°C° 0 mm 0 mps 749 mmHg 99%
    04:00 +21°C° 0 mm 0 mps 749 mmHg 99%
    05:00 +21°C° 0 mm 0 mps 749 mmHg 99%
    06:00 +20°C° 0 mm 0 mps 749 mmHg 99%
    07:00 +22°C° 0 mm 0 mps 750 mmHg 95%
    08:00 +23°C° 0 mm 0 mps 750 mmHg 91%
    09:00 +25°C° 0 mm 0 mps 750 mmHg 87%
    10:00 +28°C° 0.3 mm 1 mps 750 mmHg 81%
    11:00 +29°C° 0.3 mm 1 mps 750 mmHg 76%
    12:00 +31°C° 0.3 mm 2 mps 750 mmHg 71%
    13:00 +30°C° 0.9 mm 1 mps 750 mmHg 74%
    14:00 +30°C° 0.9 mm 1 mps 749 mmHg 78%
    15:00 +30°C° 0.9 mm 1 mps 748 mmHg 81%
    16:00 +29°C° 0.8 mm 1 mps 748 mmHg 86%
    17:00 +28°C° 0.8 mm 1 mps 748 mmHg 90%
    18:00 +25°C° 0.8 mm 0 mps 748 mmHg 94%
    19:00 +24°C° 0 mm 0 mps 748 mmHg 95%
    20:00 +23°C° 0 mm 0 mps 749 mmHg 96%
    21:00 +24°C° 0 mm 1 mps 749 mmHg 97%
    22:00 +22°C° 0 mm 0 mps 750 mmHg 98%
    23:00 +22°C° 0 mm 0 mps 750 mmHg 98%

    24 July, Wednesday

    Time Temperature Precipitation Wind Pressure Humidity
    00:00 +21°C° 0 mm 0 mps 750 mmHg 99%
    01:00 +21°C° 0 mm 0 mps 749 mmHg 99%
    02:00 +21°C° 0 mm 0 mps 749 mmHg 99%
    03:00 +21°C° 0 mm 0 mps 749 mmHg 99%
    04:00 +21°C° 0 mm 0 mps 749 mmHg 99%
    05:00 +21°C° 0 mm 0 mps 749 mmHg 99%
    06:00 +21°C° 0 mm 0 mps 749 mmHg 99%
    07:00 +22°C° 0 mm 0 mps 749 mmHg 95%
    08:00 +23°C° 0 mm 0 mps 750 mmHg 91%
    09:00 +27°C° 0 mm 1 mps 750 mmHg 87%
    10:00 +28°C° 0.4 mm 1 mps 750 mmHg 80%
    11:00 +29°C° 0.4 mm 1 mps 750 mmHg 74%
    12:00 +31°C° 0.4 mm 2 mps 750 mmHg 68%
    13:00 +30°C° 0.8 mm 1 mps 749 mmHg 73%
    14:00 +30°C° 0.8 mm 1 mps 749 mmHg 78%
    15:00 +30°C° 0.8 mm 1 mps 748 mmHg 83%
    16:00 +29°C° 0.8 mm 1 mps 748 mmHg 87%
    17:00 +28°C° 0.8 mm 1 mps 748 mmHg 91%
    18:00 +27°C° 0.8 mm 1 mps 748 mmHg 95%
    19:00 +26°C° 0.5 mm 1 mps 749 mmHg 96%
    20:00 +25°C° 0.5 mm 1 mps 749 mmHg 97%
    21:00 +24°C° 0.5 mm 1 mps 749 mmHg 98%
    22:00 +24°C° 0 mm 1 mps 750 mmHg 99%
    23:00 +24°C° 0 mm 1 mps 750 mmHg 99%

    25 July, Thursday

    Time Temperature Precipitation Wind Pressure Humidity
    00:00 +24°C° 0 mm 1 mps 750 mmHg 99%
    01:00 +21°C° 0 mm 0 mps 749 mmHg 99%
    02:00 +21°C° 0 mm 0 mps 749 mmHg 99%
    03:00 +21°C° 0 mm 0 mps 748 mmHg 99%
    04:00 +21°C° 0 mm 0 mps 749 mmHg 99%
    05:00 +21°C° 0 mm 0 mps 749 mmHg 99%
    06:00 +21°C° 0 mm 0 mps 749 mmHg 99%
    07:00 +22°C° 0 mm 0 mps 749 mmHg 98%
    08:00 +22°C° 0 mm 0 mps 750 mmHg 97%
    09:00 +23°C° 0 mm 0 mps 750 mmHg 96%
    10:00 +25°C° 0.1 mm 0 mps 750 mmHg 87%
    11:00 +26°C° 0.1 mm 0 mps 750 mmHg 78%
    12:00 +30°C° 0.1 mm 1 mps 750 mmHg 70%
    13:00 +30°C° 0.7 mm 1 mps 749 mmHg 73%
    14:00 +30°C° 0.7 mm 1 mps 749 mmHg 77%
    15:00 +30°C° 0.7 mm 1 mps 748 mmHg 80%
    16:00 +29°C° 1 mm 1 mps 748 mmHg 85%
    17:00 +28°C° 1 mm 1 mps 748 mmHg 90%
    18:00 +27°C° 1 mm 1 mps 748 mmHg 96%
    19:00 +26°C° 0.8 mm 1 mps 748 mmHg 96%
    20:00 +25°C° 0.8 mm 1 mps 749 mmHg 97%
    21:00 +22°C° 0.8 mm 0 mps 750 mmHg 98%
    22:00 +22°C° 0.4 mm 0 mps 750 mmHg 98%
    23:00 +21°C° 0.4 mm 0 mps 750 mmHg 98%

    26 July, Friday

    Time Temperature Precipitation Wind Pressure Humidity
    00:00 +21°C° 0.4 mm 0 mps 750 mmHg 99%
    01:00 +21°C° 0 mm 0 mps 750 mmHg 99%
    02:00 +21°C° 0 mm 0 mps 749 mmHg 98%
    03:00 +21°C° 0 mm 0 mps 749 mmHg 98%
    04:00 +20°C° 0 mm 0 mps 749 mmHg 98%
    05:00 +20°C° 0 mm 0 mps 749 mmHg 99%
    06:00 +20°C° 0 mm 0 mps 749 mmHg 99%
    07:00 +21°C° 0 mm 0 mps 749 mmHg 95%
    08:00 +23°C° 0 mm 0 mps 750 mmHg 91%
    09:00 +25°C° 0 mm 0 mps 750 mmHg 87%
    10:00 +29°C° 0 mm 1 mps 750 mmHg 75%
    11:00 +31°C° 0 mm 1 mps 750 mmHg 64%
    12:00 +33°C° 0 mm 1 mps 750 mmHg 53%
    13:00 +33°C° 0.1 mm 1 mps 749 mmHg 55%
    14:00 +33°C° 0.1 mm 1 mps 748 mmHg 57%
    15:00 +33°C° 0.1 mm 1 mps 748 mmHg 59%
    16:00 +31°C° 0.8 mm 1 mps 748 mmHg 71%
    17:00 +28°C° 0.8 mm 1 mps 748 mmHg 82%
    18:00 +26°C° 0.8 mm 1 mps 747 mmHg 93%
    19:00 +26°C° 0.5 mm 1 mps 748 mmHg 95%
    20:00 +25°C° 0.5 mm 1 mps 749 mmHg 96%
    21:00 +24°C° 0.5 mm 1 mps 750 mmHg 98%
    22:00 +24°C° 0.5 mm 1 mps 750 mmHg 98%
    23:00 +24°C° 0.5 mm 1 mps 750 mmHg 98%
    Show more